USA 270

Last updated on Sun Jun 21 2026 00:03:07 GMT+0000 (Coordinated Universal Time)

1 41744U 16052A 26170.64105860 -.00000195 00000+0 00000+0 0 9994 2 41744 4.2028 77.1719 0000455 171.4902 57.9144 0.99500819 28155
UTC large
Height (km)
Speed (km/s)
/
Latitude / Longitude
Inclination (degrees)
Orbital Period (minutes)
Azimuth
Elevation
Range (km)
Doppler Factor

Next 0 passes for location: London (51.5072 / 0.1276)

No passes found over London.
USA 270